Zurück zum Katalog

IRIDIUM 33 DEB

AktivPO
NORAD 36483·DEBRIS·🇺🇸 United States

Gestartet Sep 14, 1997 von Baikonur Cosmodrome

Loading…

Nächste Überflüge (nächste 24 Stunden)

TLE

AktuellSource: Space-Track

Epoche: Sep 11, 2026, 10:05 UTC

1 36483U 97051VZ  26254.42033527  .00000907  00000-0  24574-3 0  9992
2 36483  86.3766 295.7071 0007082 313.2576  46.8035 14.46672415690873

Verfolge IRIDIUM 33 DEB in Echtzeit mit AllMySat

Download on the App Store